Regional Weather Roundup
Issued by NWS Kansas City/Pleasant Hill, MO

Home | Current Version | Previous Version | Graphics & Text | Print | Product List | Glossary Off
Versions: 1 2 3 4 5 6 7 8 9 10 11 12 13 14 15 16 17 18 19 20 21 22 23 24 25 26 27 28 29 30 31 32 33 34 35 36 37 38 39 40 41 42 43 44 45 46 47 48 49 50

000
ASUS43 KEAX 280111
RWREAX

WEATHER ROUNDUP FOR EASTERN KANSAS AND NORTHWEST MISSOURI
NATIONAL WEATHER SERVICE KANSAS CITY/PLEASANT HILL MO
800 PM CDT WED AUG 27 2014

KSZ040-057-103>105-MOZ028-029-037-043-280200-
...KANSAS CITY METROPOLITAN AREA...

CITY           SKY/WX    TMP DP  RH WIND       PRES   REMARKS
K.C. INTL      CLOUDY    80  71  74 E9        30.04S
K.C. DOWNTOWN  CLOUDY    83  72  69 E8        30.02S
LEES SUMMIT    CLOUDY    80  72  76 E6        30.05R
OLATHE - IXD   CLOUDY    81  73  76 E6        30.04R
OLATHE - OJC   CLOUDY    81  73  76 E5        30.03S
LAWRENCE       CLOUDY    82  73  74 E6        30.02R

$$

MOZ001>008-011>017-020>025-030>033-038>040-044>046-053-054-280200-
...NORTHERN AND CENTRAL MISSOURI...

CITY           SKY/WX    TMP DP  RH WIND       PRES   REMARKS
ST. JOSEPH     CLOUDY    77  72  84 NE6       30.04S
MOSBY          CLOUDY    79  70  73 E3        30.04R
WHITEMAN AFB   PTCLDY    78  56  46 E2        30.04R
CLINTON        PTCLDY    81  73  78 E3        30.03S
SEDALIA        CLEAR     80  73  79 E5        30.05R
WARSAW         NOT AVBL
MARSHALL       PTCLDY    81  75  83 E3        30.05R
CHILLICOTHE      N/A     77  71  82 CALM      30.07R
MOBERLY        CLEAR     75  68  78 E3        30.07R
KIRKSVILLE     MOCLDY    74  70  87 NE3       30.09R

$$

MOZ041-047>049-056>058-063>065-088>090-097-280200-
...EASTERN AND SOUTHERN MISSOURI...

CITY           SKY/WX    TMP DP  RH WIND       PRES   REMARKS
ST. LOUIS INTL LGT RAIN  75  68  78 CALM      30.08F
SPIRIT OF STL  TSTM      72  70  94 CALM      30.06F
COLUMBIA       PTCLDY    77  67  71 E10       30.07R
JEFFERSON CITY PTCLDY    77  68  73 SE9       30.05R
MEXICO         MOCLDY    77  75  94 SE3       30.07
HANNIBAL       CLOUDY    81  70  69 E3        30.07S
ROLLA          CLOUDY    74  68  81 NE9       30.06S
LEBANON        PTCLDY    81  66  61 NE5       30.07R
OSAGE BEACH    PTCLDY    79  66  65 E5        30.05R
SPRINGFIELD    CLOUDY    83  67  58 NE7       30.03R
BRANSON        MOCLDY    88  64  45 S7        30.04R
NEVADA         PTCLDY    77  66  69 SE5       30.03R
JOPLIN         PTCLDY    83  66  56 E8        30.02R
WEST PLAINS    MOCLDY    78  68  71 NE3       30.07R

$$

IAZ060-094-KSZ022-034>040-054-083-096-NEZ052-066-093-280200-
...KANSAS...SOUTHEAST NEBRASKA AND IOWA...

CITY           SKY/WX    TMP DP  RH WIND       PRES   REMARKS
TOPEKA         CLOUDY    82  69  64 E3        30.01S
MANHATTAN      MOCLDY    83  71  67 E10       29.99F
EMPORIA        CLOUDY    85  70  60 E13       30.00R
CHANUTE        MOCLDY    89  68  49 E12       30.00R HX  93
WICHITA        MOCLDY    87  64  46 SE10      29.97F
OMAHA          CLOUDY    73  69  87 E6        30.04F
LINCOLN        LGT RAIN  73  70  90 SE6       30.04S
FALLS CITY     CLOUDY    76  72  87 E6        30.03S
LAMONI         CLOUDY    73  70  90 NE3       30.08R
DES MOINES     CLOUDY    73  68  84 CALM      30.08R

$$




USA.gov is the U.S. government's official web portal to all federal, state and local government web resources and services.